Belfast Harbour, United Kingdom

10:21 PM BST on July 26, 2017 (GMT +0100)
Belfast City

Weather History for EGAC - July, 2013

Change the Weather History Date:

Sunday, July 7, 2013

  Actual Average Record
Temperature  
Mean Temperature 64 °F -  
Max Temperature 69 °F 63 °F 71 °F (1997)
Min Temperature 60 °F 52 °F 48 °F (2004)
Growing Degree Days 14 (Base 50)    
Moisture  
Dew Point 58 °F    
Average Humidity 78    
Maximum Humidity 94    
Minimum Humidity 68    
Precipitation  
Precipitation 0.00 in - - ()
Sea Level Pressure  
Sea Level Pressure 30.56 in    
Wind  
Wind Speed 6 mph ()    
Max Wind Speed 14 mph    
Max Gust Speed -    
Visibility 6.2 miles    
Events      
Averages and records for this station are not official NWS values.
T = Trace of Precipitation, MM = Missing Value Source: Averaged Metar Reports

Daily Weather History Graph

Daily Weather History Graph

Search for Another Location

Airport or City:

Trip Planner

Search our weather history database for the weather conditions in past years. The results will help you decide how hot, cold, wet, or windy it might be!

Date:

Astronomy

Jul. 07, 2013 Rise Set
Actual Time 4:57 AM IST 9:58 PM IST
Civil Twilight 4:03 AM IST 10:52 PM IST
Nautical Twilight 2:20 AM IST 12:32 AM IST
Astronomical Twilight Sun does not set Sun does not set
Moon 4:33 AM IST (7/7) 8:58 PM IST (7/7)
Length of Visible Light 18h 49m
Length of Day
17h 01m
Waning Crescent, 1% of the Moon is Illuminated
Jul 7
Waning Crescent
Jul 8
New
Jul 16
First Quarter
Jul 22
Full
Jul 29
Last Quarter

Hourly Weather History & Observations

Time (IST) Temp. Dew Point Humidity Pressure Visibility Wind Dir Wind Speed Gust Speed Precip Events Conditions
6:20 AM 60.8 °F 59.0 °F 94% 30.48 in 6.2 mi NNE 4.6 mph - N/A   Mostly Cloudy
6:50 AM 60.8 °F 59.0 °F 94% 30.51 in 6.2 mi Variable 3.5 mph - N/A   Mostly Cloudy
7:20 AM 60.8 °F 57.2 °F 88% 30.51 in 6.2 mi Variable 3.5 mph - N/A   Mostly Cloudy
7:50 AM 60.8 °F 57.2 °F 88% 30.51 in 6.2 mi Variable 3.5 mph - N/A   Mostly Cloudy
8:20 AM 60.8 °F 57.2 °F 88% 30.54 in 6.2 mi NNW 3.5 mph - N/A   Mostly Cloudy
8:50 AM 60.8 °F 57.2 °F 88% 30.54 in 6.2 mi Variable 3.5 mph - N/A   Mostly Cloudy
9:20 AM 62.6 °F 57.2 °F 82% 30.54 in 6.2 mi North 4.6 mph - N/A   Mostly Cloudy
9:50 AM 64.4 °F 57.2 °F 77% 30.54 in 6.2 mi Variable 3.5 mph - N/A   Mostly Cloudy
10:20 AM 64.4 °F 57.2 °F 77% 30.54 in 6.2 mi North 5.8 mph - N/A   Mostly Cloudy
10:50 AM 62.6 °F 57.2 °F 82% 30.54 in 6.2 mi North 5.8 mph - N/A   Mostly Cloudy
11:20 AM 64.4 °F 59.0 °F 83% 30.57 in 6.2 mi NNE 9.2 mph - N/A   Mostly Cloudy
11:50 AM 64.4 °F 59.0 °F 83% 30.57 in 6.2 mi NNE 9.2 mph - N/A   Mostly Cloudy
12:20 PM 66.2 °F 59.0 °F 78% 30.57 in 6.2 mi North 10.4 mph - N/A   Scattered Clouds
12:50 PM 68.0 °F 59.0 °F 73% 30.57 in 6.2 mi North 10.4 mph - N/A   Partly Cloudy
1:20 PM 68.0 °F 59.0 °F 73% 30.57 in 6.2 mi NNE 12.7 mph - N/A   Partly Cloudy
1:50 PM 66.2 °F 59.0 °F 78% 30.57 in 6.2 mi North 12.7 mph - N/A   Partly Cloudy
2:20 PM 68.0 °F 59.0 °F 73% 30.57 in 6.2 mi North 10.4 mph - N/A   Partly Cloudy
2:50 PM 68.0 °F 59.0 °F 73% 30.57 in 6.2 mi NNE 11.5 mph - N/A   Partly Cloudy
3:20 PM 66.2 °F 57.2 °F 73% 30.57 in 6.2 mi North 11.5 mph - N/A   Partly Cloudy
3:50 PM 68.0 °F 57.2 °F 68% 30.57 in 6.2 mi North 13.8 mph - N/A   Partly Cloudy
4:20 PM 69.8 °F 59.0 °F 68% 30.57 in 6.2 mi NNE 12.7 mph - N/A   Partly Cloudy
4:50 PM 69.8 °F 59.0 °F 68% 30.57 in 6.2 mi NE 11.5 mph - N/A   Partly Cloudy
5:20 PM 68.0 °F 59.0 °F 73% 30.57 in 6.2 mi NNE 11.5 mph - N/A   Partly Cloudy
5:50 PM 66.2 °F 57.2 °F 73% 30.57 in 6.2 mi NNE 10.4 mph - N/A   Partly Cloudy
6:20 PM 66.2 °F 57.2 °F 73% 30.57 in 6.2 mi North 9.2 mph - N/A   Partly Cloudy
6:50 PM 66.2 °F 57.2 °F 73% 30.57 in - North 6.9 mph - N/A   Clear
7:20 PM 66.2 °F 57.2 °F 73% 30.57 in - North 6.9 mph - N/A   Clear
7:50 PM 64.4 °F 55.4 °F 73% 30.57 in - NW 5.8 mph - N/A   Clear
8:20 PM 64.4 °F 55.4 °F 73% 30.57 in - North 8.1 mph - N/A   Clear
8:50 PM 62.6 °F 55.4 °F 77% 30.57 in - Variable 3.5 mph - N/A   Clear
9:20 PM 60.8 °F 55.4 °F 82% 30.57 in - NNE 3.5 mph - N/A   Clear
9:50 PM 60.8 °F 55.4 °F 82% 30.60 in - North 2.3 mph - N/A   Clear